www.pogodaiklimat.ru

Погода и климат >> Архив погоды >> Южная Африка >> Форт-Бофорт


ПОГОДА в Форт-Бофорте

  • Прогноз погоды в Форт-Бофорте
  • Монитор погоды в Форт-Бофорте

АРХИВ ПОГОДЫ в Форт-Бофорте

Время (UTC), дата Ветер
(напр.,м/с)
 
Видим.   Явления Облачность Т
(С)
Тd
(С)
f
(%)
Тe
(С)
Тes
(С)
Комфортность P
(гПа)
Po
(гПа)
Тmin
(С)
Tmax
(С)
R
(мм)
R24
(мм)
S
(см)
12 16.09 Ю 4 н/о н/о +33.6 +1.8 13 +30 +30 жарко 962.1 +9.9 +33.6
15 16.09 ЮВ 7 н/о н/о +26.9 +6.6 27 +26 +26 жарко 963.2 +26.9 +33.6
18 16.09 ЮВ 3 н/о н/о +18.5 +8.0 50 +19 +19 966.2 +18.5 +33.6
21 16.09 Ю 1 н/о н/о +15.6 +11.4 76 +16 +16 967.0 +15.5 +33.6
00 17.09 Ю 1 н/о н/о +12.9 +10.4 85 +13 +13 966.5 +12.9 +33.6
03 17.09 СЗ 2 н/о н/о +10.5 +7.4 81 +10 +10 966.3 +10.5 +33.6
06 17.09 штиль 0 н/о н/о +15.2 +9.1 67 +15 +15 966.6 +10.2
09 17.09 ЮВ 3 н/о н/о +22.5 +12.6 54 +25 +25 комфорт 965.5 +10.2 +22.7
12 17.09 ЮВ 5 н/о н/о +29.4 +11.3 33 +30 +30 жарко 963.1 +10.2 +29.5
15 17.09 ЮВ 7 н/о н/о +24.3 +15.3 57 +27 +27 жарко 962.9 +24.3 +29.8
18 17.09 ЮВ 3 н/о н/о +19.0 +15.3 79 +20 +20 965.2 +19.0 +29.8
21 17.09 ЮВ 3 н/о н/о +18.3 +15.4 83 +19 +19 966.4 +18.3 +29.8
00 18.09 ЮВ 4 н/о н/о +17.6 +14.9 84 +17 +17 966.7 +17.3 +29.8
03 18.09 ЮВ 3 н/о н/о +17.0 +14.3 84 +17 +17 967.6 +17.0 +29.8
06 18.09 ЮВ 2 н/о н/о +18.8 +14.7 77 +20 +20 968.5 +16.9
09 18.09 ЮВ 3 н/о н/о +24.7 +13.7 50 +27 +27 жарко 968.3 +16.9 +24.8
12 18.09 ЮВ 6 н/о н/о +27.2 +14.8 47 +30 +30 душно 966.4 +16.9 +27.8
15 18.09 ЮВ 6 н/о н/о +22.6 +14.8 61 +26 +26 жарко 967.0 +22.6 +27.8
18 18.09 ЮВ 3 н/о н/о +18.0 +14.1 78 +18 +18 969.4 +17.9 +27.8
21 18.09 В 2 н/о н/о +18.0 +14.7 81 +19 +19 969.6 +17.6 +27.8
00 19.09 Ю 2 н/о н/о +15.4 +13.7 90 +15 +15 967.3 +15.4 +27.8
03 19.09 Ю 1 н/о н/о +15.3 +13.6 90 +16 +16 967.3 +14.9 +27.8
06 19.09 Ю 2 н/о н/о +16.9 +14.2 84 +17 +17 968.2 +14.9
09 19.09 ЮВ 1 н/о н/о +22.3 +14.7 62 +26 +26 жарко 966.5 +14.9 +22.5
12 19.09 Ю 3 н/о н/о +29.2 +14.1 40 +31 +31 жарко 962.0 +14.9 +29.4
15 19.09 Ю 4 н/о н/о +30.9 +12.6 33 +32 +32 жарко 960.8 +29.2 +33.3
18 19.09 Ю 2 н/о н/о +21.2 +16.0 72 +25 +25 комфорт 961.4 +21.2 +33.3
21 19.09 З 1 н/о н/о +18.5 +15.4 82 +20 +20 960.6 +18.5 +33.3
00 20.09 СЗ 1 н/о н/о +16.6 +14.1 85 +17 +17 958.8 +16.6 +33.3
03 20.09 Ю 2 н/о н/о +18.3 +11.2 63 +19 +19 958.1 +16.1 +33.3
06 20.09 СЗ 3 н/о н/о +32.0 +3.4 16 +29 +29 жарко 959.0 +16.1
09 20.09 З 9 н/о н/о +39.6 -2.0 7 +36 +36 очень
жарко
958.4 +16.1 +39.6
12 20.09 СЗ 8 н/о н/о +40.6 -3.3 6 +36 +36 очень
жарко
956.1 +16.1 +41.5
15 20.09 ЮВ 6 н/о н/о +25.8 +14.1 48 +28 +28 жарко 957.6 +25.8 +41.5
18 20.09 В 3 н/о н/о +19.3 +12.4 64 +21 +21 комфорт 960.9 +19.3 +41.5
21 20.09 Ю 2 н/о н/о +15.9 +9.1 64 +16 +16 962.2 +15.9 +41.5
00 21.09 С 2 н/о н/о +14.4 +8.4 67 +14 +14 961.6 +14.4 +41.5
03 21.09 З 2 н/о н/о +12.5 +7.8 73 +12 +12 960.6 +12.5 +41.5
06 21.09 штиль 0 н/о н/о +16.7 +9.4 62 +17 +17 960.6 +11.6
09 21.09 ЮВ 4 н/о н/о +22.9 +10.5 45 +25 +25 комфорт 959.4 +11.6 +22.9
12 21.09 ЮВ 5 н/о н/о +25.4 +9.8 37 +26 +26 жарко 957.0 +11.6 +26.5
15 21.09 ЮВ 6 н/о н/о +20.4 +11.4 56 +22 +22 комфорт 958.1 +20.4 +26.5
18 21.09 ЮВ 4 н/о н/о +16.8 +11.5 71 +16 +16 961.9 +16.8 +26.5
21 21.09 Ю 4 н/о н/о +16.0 +11.0 72 +15 +15 962.8 +16.0 +26.5
00 22.09 СВ 2 н/о н/о +14.5 +9.5 72 +14 +14 962.9 +14.5 +26.5
03 22.09 ЮЗ 1 н/о н/о +14.5 +9.5 72 +15 +15 963.4 +14.4 +26.5
06 22.09 Ю 2 н/о н/о +15.1 +9.0 67 +15 +15 963.6 +14.4
09 22.09 Ю 3 н/о н/о +11.2 +9.1 87 +10 +10 964.8 +11.1 +15.0
12 22.09 СЗ 2 н/о н/о +13.2 +10.5 84 +13 +13 964.9 +11.1 +15.0 3
15 22.09 ЮЗ 2 н/о н/о +10.8 +8.9 88 +10 +10 968.0 +10.7 +15.0
18 22.09 ЮЗ 3 н/о н/о +9.5 +5.6 77 +7 +7 971.5 +9.4 +15.0 7
21 22.09 З 3 н/о н/о +8.7 +4.9 77 +6 +6 972.5 +8.6 +15.0
00 23.09 З 3 н/о н/о +8.0 +4.0 76 +5 +5 973.6 +8.0 +15.0 8
03 23.09 З 4 н/о н/о +8.6 +3.6 71 +6 +6 974.2 +7.3 +15.0
06 23.09 З 5 н/о н/о +11.0 +4.7 65 +9 +9 976.2 +7.3 8
09 23.09 ЮЗ 3 н/о н/о +13.3 +6.9 65 +12 +12 976.1 +7.3 +13.3

 

Местоположение метеостанции Форт-Бофорт (Южная Африка): широта -32.78 долгота 26.63 высота над уровнем моря 455 м.

В архиве по умолчанию представлена погода в Форт-Бофорте за последнюю неделю. Архивные данные за месяц целиком и за предыдущие месяцы, начиная с января 2011 года, Вы можете получить, выбрав интересующий диапазон дат из раскрывающегося списка и нажав кнопку "Ввод!".


*Определитесь, кто Вы:
робот инопланетянин человек

Внимание! Время в таблицах - всемирное. Для получения местного времени необходимо прибавить поправку, которая равна 2 ч.

Смотрите также архив погоды в соседних городах и на ближайших метеорологических станциях:

Погода в Грейамстауне (Южная Африка) (57 км)
Погода в Аэропорту Бишо (Южная Африка) (62 км)
Погода в Стуттерхейме (Южная Африка) (84 км)
Погода в Порт-Альфред (Южная Африка) (90 км)
Погода в Куинстаун аэропорту (Южная Африка) (100 км)
Погода в Куинстауне (Южная Африка) (100 км)
Погода в Парке Addo Elephant (Южная Африка) (110 км)
Погода в Ист-Лондоне (Южная Африка) (115 км)
Погода в Сомерсет-Ист (Южная Африка) (117 км)
Погода в Крадоке (Южная Африка) (117 км)

Пояснения к столбцам:

Ветер - указаны скорость ветра в м/с - средняя за 10 мин, порывы в срок и между сроками (в фигурных скобках) и направление, откуда дует ветер: С - северный, СВ - северо-восточный, В - восточный, ЮВ - юго-восточный, Ю - южный, ЮЗ - юго-западный, З - западный, СЗ - северо-западный.
Видимость - горизонтальная дальность видимости в метрах или километрах. При видимости от 1 до 10 км при отсутствии осадков обычно наблюдается дымка, при ухудшении видимости до 1 км и менее - туман. В сухую погоду видимость может ухудшаться дымом, пылью или мглою.
Явления - указаны атмосферные явления, наблюдавшиеся в срок или в последний час перед сроком; фигурными скобками обозначены явления, наблюдавшиеся между сроками (за 1-3 часа до срока); квадратными скобками обозначены град или гололедные отложения с указанием их диаметра в мм.
Облачность - указаны через наклонную черту общая и нижняя облачность в баллах и высота нижней границы облаков в метрах; квадратными скобками обозначены формы облаков: Ci - перистые, Cs - перисто-слоистые, Cc - перисто-кучевые, Ac - высококучевые, As - высокослоистые, Sc - слоисто-кучевые, Ns - слоисто-дождевые, Cu - кучевые, Cb - кучево-дождевые. Подробнее классификацию облаков см. в Атласе облаков (PDF).
T - Температура воздуха - температура, измеренная на высоте 2 м над землей.
Td - Температура точки росы - температура, при понижении до которой содержащийся в воздухе водяной пар достигнет насыщения.
f - Относительная влажность воздуха - влажноcть воздуха, измеренная на высоте 2 м над землей.
Te - Эффективная температура - температура, которую ощущает одетый по сезону человек в тени. Характеристика душности погоды. При расчете учитывается влияние влажности воздуха и скорости ветра на теплоощущения человека.
Tes - Эффективная температура на солнце - температура, которую ощущает человек, с поправкой на солнечный нагрев. Характеристика знойности погоды. Зависит от высоты солнца над горизонтом, облачности и скорости ветра. Ночью, в пасмурную погоду, а также при ветре 12 м/с и более поправка равна нулю.
P - Атмосферное давление - приведенное к уровню моря атмосферное давление.
Po - Атмосферное давление - измеренное на уровне метеостанции атмосферное давление.
Tmin - Минимальная температура - минимум температуры воздуха на высоте 2 м над землей.
Tmax - Максимальная температура - максимум температуры воздуха на высоте 2 м над землей.
R - Количество осадков - Количество выпавших осадков за период времени, мм. При наведении курсора мыши на число - период времени, за который выпало указанное количество осадков.
R24 - Количество осадков - Количество выпавших осадков за 24 часа, мм.
S - Снежный покров - Высота снежного покрова, см. При наведении курсора мыши на число - состояние снежного покрова и степень покрытия местности в баллах.